Location: Madrid
(40.4167°N, 3.7036°W)
Time: 20:26:56
(UTC+00:00)

ISS - Pass Details

Date: 12 July 2025
Orbit: 413 x 417 km, 51.6° (Epoch: 13 July)

Event Time Altitude Azimuth Distance (km) Brightness Sun altitude
Rises 20:41:50 0° 262° (W) 2,343 0.7 -9.6°
Reaches altitude 10° 20:44:08 10° 276° (W) 1,484 -0.1 -10.0°
Maximum altitude 20:47:00 26° 335° (NNW) 855 -1.3 -10.4°
Drops below altitude 10° 20:49:53 10° 35° (NE) 1,490 -0.9 -10.8°
Sets 20:52:12 0° 48° (NE) 2,356 0.0 -11.1°
